Regional Weather Roundup
Issued by NWS Green Bay, WI

Home | Current Version | Previous Version | Text Only | Print | Product List | Glossary On
Versions: 1 2 3 4 5 6 7 8 9 10 11 12 13 14 15 16 17 18 19 20 21 22 23 24 25 26 27 28 29 30 31 32 33 34 35 36 37 38 39 40 41 42 43 44 45 46 47 48 49 50
000
ASUS43 KGRB 191410
RWRGRB

NORTH-CENTRAL AND NORTHEAST WISCONSIN REGIONAL WEATHER ROUNDUP
NATIONAL WEATHER SERVICE GREEN BAY WI
900 AM CDT FRI SEP 19 2014

WIZ005-009-010>012-018-019-191500-
NORTH CENTRAL WISCONSIN

CITY           SKY/WX    TMP DP  RH WIND       PRES   REMARKS
IRONWOOD       CLOUDY    57  52  82 S16G24    29.87F
MANITOWISH WTR PTSUNNY   55  51  84 S16G25    29.97F
ARBOR VITAE    PTSUNNY   57  51  82 S15G23    30.00F
EAGLE RIVER    MOSUNNY   53  49  89 S8        30.00F
LAND O LAKES   MOSUNNY   54  49  84 S10G22    30.00F
RHINELANDER    PTSUNNY   53  49  86 S12G18    30.03F
PHILLIPS       PTSUNNY   54  50  87 S12       29.98F
ANTIGO         CLOUDY    49  49 100 S13       30.07F FOG
TOMAHAWK       PTSUNNY   52  50  92 S5        30.04F FOG
MERRILL        CLOUDY    52  51  94 S7        30.05F FOG
$$

WIZ013-073-191500-
NORTHEAST WISCONSIN

CITY           SKY/WX    TMP DP  RH WIND       PRES   REMARKS
IRON MOUNTAIN  CLOUDY    51  48  89 S12       30.05F
MARINETTE      CLOUDY    57  54  88 SW9       30.10F
OCONTO         CLOUDY    56  56 100 S8G16     30.10F
$$

WIZ017-030-035>037-045-191500-
CENTRAL WISCONSIN

CITY           SKY/WX    TMP DP  RH WIND       PRES   REMARKS
MEDFORD        MOSUNNY   53  51  92 S13       30.03F FOG
WAUSAU         CLOUDY    51  50  96 S10       30.05F FOG
MOSINEE        CLOUDY    52  52 100 S9G16     30.07F FOG
MARSHFIELD     CLOUDY    53  51  93 S10       30.05F FOG
WISC RAPIDS    CLOUDY    53  51  93 S8G17     30.08F FOG
STEVENS POINT  CLOUDY    51  49  95 S10G17    30.08F FOG
WAUPACA        CLOUDY    55  54  95 S9        30.12S FOG
SHAWANO        FOG       54  52  95 S5        30.11S VSB 1
CLINTONVILLE   CLOUDY    52  52 100 S8        30.11S FOG
$$

WIZ038-039-048-051-191500-
FOX VALLEY

CITY           SKY/WX    TMP DP  RH WIND       PRES   REMARKS
NWS GREEN BAY  CLOUDY    57  57 100 S8        30.11F FOG
APPLETON       CLOUDY    55  55 100 S12       30.12F FOG
OSHKOSH        PTSUNNY   58  56  93 S9        30.11F FOG
FOND DU LAC    MOSUNNY   58  54  86 S10       30.13F
$$

WIZ022-050-052-191500-
EAST CENTRAL WISCONSIN

CITY           SKY/WX    TMP DP  RH WIND       PRES   REMARKS
STURGEON BAY   CLOUDY    57  54  88 S14       30.12F
MANITOWOC      CLOUDY    61  58  90 S15       30.13F
SHEBOYGAN      MOSUNNY   59  57  93 S7        30.14F FOG
$$

LMZ563-521-522-541>543-191500-
LAKESHORE

STATION/POSITION TIME  TEMP    WIND        PRES    VSBY  WAVE
                       AIR SEA DIR/SP/G                  HT/PER
                 (UTC) (F)     (DEG/KT/KT) (MB)    (MI)  (FT/S)
SHEBOYGAN LKSHOR 1400   56 51  170/ 13/ 14 1020.8F
KEWAUNEE LKSHORE 1400   55     170/ 11/ 14 1019.4F
NORTHPORT PIER   1400   58     150/ 12/ 20 1019.3F
N MID LAKE BUOY  1400   55 58  190/ 19/ 23 1020.2F         4/ 5
S GREEN BAY BUOY 1400   59     VRB 16/ 19  1020.3F
CHAMBERS ISLAND  1400   58     170/  7/ 15 1019.6F
MENOMINEE LKSHOR 1400   57     180/ 10/ 13 1019.9F
$$


USA.gov is the U.S. government's official web portal to all federal, state and local government web resources and services.